EHI
0 0 0 0 0 0 0 0 0 0 0 0 0 1 2 4 7 9 11 10 7 3 1 1 2 2 4 5 6 6 7 8 8 7 6 6 7 6 4 4 4 4 3 2
0 0 0 0 0 0 0 0 0 0 0 0 0 1 2 4 6 7 8 8 7 6 5 5 3 3 4 6 6 7 10 12 11 8 7 8 9 7 5 4 4 4 4 3
0 0 0 0 0 0 0 0 0 0 0 0 0 1 4 6 7 7 6 6 6 8 10 10 7 5 5 5 5 7 13 16 16 12 9 9 9 7 4 4 4 4 4 3
0 0 0 0 0 0 0 0 0 0 0 0 0 1 4 7 8 9 9 7 6 9 12 13 12 9 7 5 4 7 12 18 20 18 15 11 8 5 4 2 3 3 3 3
0 0 0 0 0 0 0 0 0 0 0 0 0 1 3 5 7 10 11 10 9 9 11 14 14 13 9 6 5 8 13 18 22 23 20 14 9 5 4 3 3 3 3 3
0 0 0 0 0 0 0 0 0 0 0 0 0 0 1 3 5 7 9 10 11 11 12 13 14 14 12 9 8 11 15 19 22 23 21 18 13 9 6 4 3 2 3 4
0 0 0 0 0 0 0 0 0 0 0 0 0 0 2 3 4 5 6 8 11 14 14 13 14 15 15 13 12 14 18 20 21 21 21 19 16 11 6 3 1 1 2 4
0 0 0 0 0 0 0 0 0 0 0 0 0 1 4 4 4 4 6 7 10 15 16 14 13 15 16 17 16 16 18 20 20 20 19 17 14 9 5 2 1 0 1 3
0 0 0 0 0 0 0 0 0 0 0 0 0 1 4 5 4 5 6 5 7 12 15 13 12 13 15 17 17 17 18 19 19 17 15 14 13 10 6 3 2 2 2 3
0 0 0 0 0 0 0 0 0 0 0 0 0 0 3 5 6 6 7 5 4 8 12 11 10 10 12 15 18 19 19 19 18 16 14 13 13 12 8 4 3 4 5 6
0 0 0 0 0 0 0 0 0 0 0 0 0 0 3 6 6 7 7 6 5 7 10 10 9 10 11 14 18 20 19 17 17 17 17 15 14 12 9 6 6 7 9 11
0 0 0 0 0 0 0 0 0 0 0 0 0 0 3 5 6 6 7 7 7 8 9 9 9 10 11 12 16 19 18 16 16 18 20 19 17 13 10 8 10 11 12 13
0 0 0 0 0 0 0 0 0 0 0 0 0 1 3 5 5 6 7 6 6 8 9 9 9 9 10 13 17 18 17 16 16 19 22 23 20 16 13 12 13 13 13 13
0 0 0 0 0 0 0 0 0 0 0 0 0 1 3 4 4 7 8 7 7 9 12 12 12 13 14 18 23 23 20 17 18 21 23 23 21 18 17 17 16 15 15 15
0 0 0 0 0 0 0 0 0 0 0 0 0 1 3 4 5 8 11 11 12 14 17 17 18 20 22 26 30 29 25 23 24 25 25 24 23 21 20 21 20 20 19 19
0 0 0 0 0 0 0 0 0 0 0 0 0 2 3 6 9 12 15 17 17 19 20 21 22 25 27 29 31 30 28 28 29 28 27 26 24 23 22 23 22 22 21 21
0 0 0 0 0 0 0 0 0 1 1 1 1 2 4 8 12 16 18 18 18 18 20 22 23 25 24 24 26 27 26 27 28 27 26 26 24 22 22 22 22 21 21 21
0 0 0 0 0 0 0 0 0 1 3 3 3 3 5 7 10 13 15 15 14 15 17 20 22 22 19 18 21 24 24 25 26 25 25 26 24 21 19 20 21 22 21 21
0 0 0 0 0 0 0 0 0 1 3 3 3 3 4 5 7 10 11 12 12 13 15 18 20 20 18 16 18 23 24 24 26 27 27 27 25 21 18 18 19 21 20 20
0 0 0 0 0 0 0 0 0 1 1 2 2 3 5 6 8 12 14 13 12 13 15 18 20 21 19 17 19 23 24 23 24 26 29 28 24 20 18 17 17 18 18 18
0 0 0 0 0 0 0 0 0 0 1 1 1 3 5 7 10 15 17 16 14 12 14 18 21 22 21 21 22 23 23 22 21 24 28 28 24 19 16 16 15 15 16 17
0 0 0 0 0 0 0 0 0 0 1 1 2 2 3 6 10 15 17 16 15 14 14 18 21 23 23 24 25 24 24 23 22 24 27 27 22 17 14 14 14 14 15 17
0 0 0 0 0 0 0 0 0 0 1 2 2 1 0 4 10 14 15 14 13 12 13 15 19 22 23 24 24 25 25 24 24 25 25 24 20 17 16 15 14 14 15 16
1 0 0 0 0 0 0 1 1 0 0 1 1 0 0 3 10 13 12 11 10 10 10 12 15 18 20 21 20 22 23 23 23 22 22 20 18 18 19 16 14 15 14 13
2 1 0 0 0 0 1 2 2 1 1 1 1 1 1 2 7 12 12 11 12 12 10 11 12 14 15 16 17 18 20 20 19 19 18 17 16 18 19 16 12 10 9 7
4 2 1 0 0 0 1 2 2 1 2 3 3 3 2 2 5 11 12 12 16 16 13 12 12 11 12 14 14 16 17 17 16 16 16 15 15 18 19 15 9 6 4 3
Wind_Speed
7 9 7 4 5 6 6 6 4 2 1 4 4 2 4 6 7 6 6 6 5 6 6 6 6 5 5 5 4 4 3 3 3 2 2 2 2 1 1 0 1 1 1 1
9 9 6 4 5 6 7 6 3 0 0 4 3 3 4 6 7 6 6 6 6 6 7 7 7 6 6 5 4 4 4 3 3 2 2 1 1 1 1 0 1 0 1 2
12 4 2 6 7 7 7 7 4 3 2 5 5 5 5 6 7 7 7 7 7 7 8 8 7 6 6 6 5 4 4 4 3 3 2 2 2 1 1 1 1 0 1 1
10 7 6 8 8 8 6 3 4 5 6 3 5 3 4 6 8 9 9 8 8 8 8 8 8 7 7 6 6 5 4 4 3 3 3 3 2 2 1 1 1 1 0 1
8 6 8 8 6 6 3 2 4 6 7 6 5 6 3 5 6 8 9 9 8 8 9 8 8 7 7 7 6 6 5 4 4 3 3 3 2 2 1 1 1 1 0 1
10 6 7 6 4 4 4 5 6 8 8 7 3 6 1 3 3 5 7 8 8 8 9 8 8 7 7 7 6 6 5 5 4 4 3 3 2 2 1 1 1 2 1 0
12 10 7 6 6 7 9 8 6 6 6 3 2 5 1 2 2 3 5 7 8 8 9 9 9 8 8 7 7 6 6 5 5 5 4 3 3 3 3 3 1 2 1 0
12 11 10 9 9 7 9 10 7 6 5 2 4 4 2 3 2 3 4 5 7 9 9 9 9 9 8 8 7 6 6 6 5 5 4 3 3 2 2 2 2 1 1 1
9 7 6 6 6 8 7 8 7 8 8 7 2 2 3 4 5 5 6 6 7 8 9 9 9 9 8 8 7 7 6 5 5 5 4 3 3 2 1 1 2 1 1 1
9 7 7 7 7 6 8 6 6 7 6 7 4 4 1 5 6 6 6 6 7 8 8 8 8 8 8 8 7 7 6 5 5 5 4 3 3 3 2 2 1 1 1 1
11 10 8 9 10 9 8 8 7 6 7 8 6 1 3 2 4 6 7 6 7 8 8 8 7 8 8 8 8 7 6 6 5 5 4 3 3 3 3 2 2 1 1 1
10 10 10 10 5 5 9 10 9 8 7 8 8 1 5 2 3 5 6 6 6 7 7 7 8 8 8 8 7 7 6 6 5 5 5 4 4 3 3 2 2 1 1 1
7 9 11 10 10 9 9 10 10 10 8 8 9 1 6 5 4 5 6 7 7 7 6 7 7 7 7 7 6 6 6 6 6 5 5 5 4 4 3 2 2 2 1 1
6 11 12 11 6 7 10 10 10 11 9 8 8 5 4 5 5 5 6 6 7 7 6 6 7 7 7 6 6 6 5 5 5 5 5 4 3 3 3 2 2 2 1 1
7 10 11 10 7 7 9 10 10 12 11 11 7 6 4 3 4 5 6 6 6 6 7 6 6 6 6 7 6 6 5 5 5 5 4 4 3 3 2 2 2 2 1 1
6 7 9 10 10 9 11 11 11 12 12 11 9 7 1 3 5 5 6 6 6 7 7 7 6 6 7 7 6 6 6 6 5 5 4 4 4 3 3 3 2 2 1 1
6 7 9 10 9 11 14 11 11 11 10 10 10 4 4 4 5 5 5 6 6 6 6 6 6 6 6 6 6 6 6 6 5 5 4 4 4 4 3 3 2 2 2 1
7 8 7 8 8 14 7 2 6 9 7 6 4 1 2 3 4 4 4 4 5 5 5 5 5 6 6 6 6 6 6 6 5 5 4 4 4 4 3 3 2 2 2 1
7 8 8 8 12 12 6 4 4 7 6 3 4 3 3 3 6 6 4 3 4 4 4 4 5 5 5 6 6 6 6 6 5 4 4 4 4 4 3 3 3 2 2 2
6 7 9 9 11 11 3 1 2 6 7 0 2 3 4 5 6 4 4 4 3 3 3 4 4 5 5 5 5 6 6 5 5 4 4 4 3 3 3 2 2 2 2 2
8 8 11 11 11 6 2 1 5 8 0 2 1 2 4 4 2 3 4 4 4 4 4 4 4 5 5 5 5 5 5 5 4 4 4 4 3 3 3 2 2 2 2 2
8 8 9 9 12 5 4 1 2 3 4 2 1 1 2 1 2 4 4 4 4 5 5 5 5 4 4 5 5 5 4 4 4 4 4 4 3 3 2 2 2 2 2 3
5 4 4 4 2 4 3 2 3 3 2 2 1 0 1 2 3 4 4 4 4 4 4 4 5 4 4 4 4 4 4 4 4 4 4 3 3 2 2 2 2 2 2 2
3 2 3 3 2 1 1 1 1 2 2 2 1 0 0 1 3 4 4 4 4 4 4 4 4 4 4 4 4 4 4 4 4 4 3 3 3 3 2 2 2 1 1 1
1 3 4 5 2 2 2 1 1 1 1 1 1 0 0 1 2 3 3 4 3 3 3 4 4 4 4 4 4 4 4 4 4 3 3 3 3 2 2 2 0 1 0 1
4 5 5 3 0 3 1 2 2 2 1 1 0 0 0 1 2 3 3 3 3 3 3 3 4 4 4 4 4 4 3 4 3 3 3 2 2 2 2 2 2 2 1 2
Wind_Direction
206 233 237 253 267 298 298 295 305 358 40 255 254 228 173 181 196 190 183 180 183 185 169 165 167 168 165 163 164 171 179 179 192 192 206 188 184 188 206 223 21 336 316 316
217 231 247 271 260 262 265 267 273 141 183 267 266 249 191 190 198 200 193 188 184 177 168 169 170 170 168 166 171 174 180 185 195 191 207 200 177 189 175 186 116 299 311 301
236 248 229 248 239 247 255 267 282 289 233 234 252 217 186 179 196 198 201 196 188 183 178 173 175 177 173 170 178 176 175 180 193 194 184 163 163 181 175 182 164 189 313 331
239 245 242 245 243 251 256 270 263 249 251 243 267 280 167 176 192 198 198 196 190 181 178 174 174 177 175 173 173 170 169 172 178 191 194 200 198 196 198 218 133 181 240 317
224 225 240 248 252 256 278 269 249 255 263 265 240 272 143 182 200 194 193 192 189 178 174 173 173 172 171 169 167 161 162 166 171 184 185 210 212 218 202 192 167 258 208 282
245 236 248 252 244 232 193 209 222 235 248 257 263 277 233 167 189 182 178 185 184 176 171 171 169 166 168 164 166 162 160 167 171 180 184 201 206 224 227 228 231 240 224 244
222 221 211 214 213 200 220 235 239 235 231 249 184 262 338 94 156 179 171 173 175 175 174 173 172 170 170 168 167 165 164 169 173 180 189 201 214 216 222 247 232 271 269 234
218 212 201 209 232 229 228 251 268 287 296 283 191 256 85 111 133 159 163 162 168 174 175 175 172 171 170 171 169 168 170 171 170 176 184 195 214 229 228 247 281 270 297 341
227 213 174 202 232 244 227 240 275 278 276 280 255 216 174 172 171 165 160 159 165 171 173 175 171 171 170 169 168 168 168 169 171 173 176 182 201 227 230 218 242 257 303 302
243 235 198 181 201 220 267 261 247 262 280 282 268 255 202 172 177 169 166 163 160 166 170 171 170 170 167 166 163 165 163 165 171 170 180 175 185 194 207 223 244 316 324 336
241 237 211 200 220 219 204 222 246 266 279 283 288 324 75 163 178 177 171 162 160 165 167 166 167 166 165 167 163 164 163 165 168 169 172 169 175 182 192 195 216 231 261 275
224 241 237 223 215 266 244 242 237 248 255 264 281 309 94 121 165 165 161 154 156 159 162 165 164 164 168 171 167 165 165 168 168 164 167 166 170 180 195 189 209 220 232 249
201 233 231 219 204 204 230 240 250 259 260 261 270 242 125 133 151 154 156 155 159 160 163 164 163 167 171 171 169 169 169 169 165 162 168 164 175 182 194 194 203 207 215 246
233 238 243 250 248 216 220 224 236 250 252 260 265 268 177 167 165 162 161 164 165 164 169 168 166 168 170 169 167 170 173 168 165 164 168 166 180 187 190 188 197 200 209 218
236 239 242 256 265 254 245 240 229 240 259 271 276 266 244 192 167 165 167 165 164 165 170 170 169 162 167 165 164 167 171 171 168 169 174 169 174 180 182 178 185 192 208 208
240 246 240 241 242 245 248 247 242 242 250 257 260 260 215 152 155 159 170 175 177 174 171 168 166 162 166 165 167 167 170 168 166 170 172 166 171 176 181 184 187 190 200 218
226 232 242 242 232 242 242 242 242 241 246 256 258 250 152 166 167 170 177 182 184 178 174 172 171 171 170 168 167 170 171 169 169 173 171 166 170 175 184 187 179 197 215 221
234 238 245 247 234 245 251 257 254 251 248 253 260 236 191 178 161 160 177 184 184 179 178 176 175 173 172 170 166 166 164 168 173 175 175 175 179 177 177 184 189 202 218 227
229 232 244 246 243 243 219 218 237 242 237 264 253 224 185 166 169 160 157 171 184 182 179 179 179 171 164 167 164 164 166 167 171 173 180 179 185 184 184 187 196 205 214 220
204 223 240 240 252 254 218 131 252 249 226 306 260 216 190 193 215 147 139 157 159 154 156 159 159 154 154 160 161 168 168 170 174 176 179 174 184 189 193 193 204 203 211 221
200 213 231 239 247 245 40 353 208 231 230 28 286 211 212 215 310 97 125 130 134 143 143 143 149 153 152 158 164 172 170 174 174 169 170 172 177 183 182 185 195 206 215 213
231 226 226 240 245 231 63 176 249 17 27 27 16 206 217 169 119 126 127 131 133 140 140 144 149 150 150 159 168 167 168 164 163 166 166 166 178 190 167 178 194 208 220 209
249 290 281 273 311 60 59 54 39 21 5 3 347 346 162 159 149 141 137 136 134 135 139 145 147 148 153 163 174 170 160 159 164 166 168 172 178 186 186 191 195 210 214 232
186 271 258 239 182 116 83 62 28 10 359 356 8 96 194 178 161 144 141 138 136 135 139 143 148 151 151 159 171 167 158 165 171 171 176 181 188 192 181 209 213 228 241 253
278 228 235 234 225 220 156 17 347 351 354 25 46 98 209 179 172 154 147 142 139 137 141 147 153 156 157 158 161 161 160 170 181 183 189 196 193 184 185 183 176 251 229 326
238 248 255 257 216 273 298 355 330 315 331 346 340 67 75 159 169 158 146 140 141 143 143 149 157 159 157 157 156 155 162 175 192 197 201 208 197 186 203 181 169 139 191 153